Weather History for KMFI - December, 2013

Change the Weather History Date:

Wednesday, December 4, 2013

  Actual Average Record
Temperature  
Mean Temperature 32 °F -  
Max Temperature 35 °F 29 °F 59 °F (2001)
Min Temperature 28 °F 13 °F -16 °F (1919)
Degree Days  
Heating Degree Days 34    
Moisture  
Dew Point 30 °F    
Average Humidity 92    
Maximum Humidity 100    
Minimum Humidity 80    
Precipitation  
Precipitation 0.04 in - - ()
Sea Level Pressure  
Sea Level Pressure 29.59 in    
Wind  
Wind Speed 12 mph (ESE)    
Max Wind Speed 20 mph    
Max Gust Speed 29 mph    
Visibility 4 miles    
Events Fog , Rain    
Averages and records for this station are not official NWS values.
T = Trace of Precipitation, MM = Missing Value Source: NWS Daily Summary

Daily Weather History Graph

Daily Weather History Graph

Search for Another Location

Airport or City:

Trip Planner

Search our weather history database for the weather conditions in past years. The results will help you decide how hot, cold, wet, or windy it might be!

Date:

Astronomy

Dec. 04, 2013 Rise Set
Actual Time 7:21 AM CST 4:20 PM CST
Civil Twilight 6:48 AM CST 4:53 PM CST
Nautical Twilight 6:11 AM CST 5:30 PM CST
Astronomical Twilight 5:36 AM CST 6:05 PM CST
Moon 8:47 AM CST (12/4) 6:33 PM CST (12/4)
Length of Visible Light 10h 05m
Length of Day
8h 59m
Waxing Crescent, 4% of the Moon is Illuminated
Dec 4
Waxing Crescent
Dec 9
First Quarter
Dec 17
Full
Dec 25
Last Quarter
Jan 1
New

Hourly Weather History & Observations

Time (CST) Temp. Windchill Dew Point Humidity Pressure Visibility Wind Dir Wind Speed Gust Speed Precip Events Conditions
12:54 AM 28.9 °F 19.2 °F 27.0 °F 92% 29.82 in 3.0 mi ENE 11.5 mph - 0.00 in Rain Light Freezing Rain
1:49 AM 28.4 °F 17.5 °F 26.6 °F 93% 29.77 in 7.0 mi ENE 13.8 mph - 0.01 in   Overcast
1:54 AM 28.9 °F 19.8 °F 27.0 °F 92% 29.82 in 8.0 mi East 10.4 mph - 0.01 in   Overcast
2:54 AM 28.9 °F 19.2 °F 27.0 °F 92% 29.80 in 3.0 mi ENE 11.5 mph - N/A   Overcast
3:04 AM 28.4 °F 17.5 °F 26.6 °F 93% 29.74 in 2.5 mi East 13.8 mph - N/A   Overcast
3:24 AM 28.4 °F 17.0 °F 26.6 °F 93% 29.72 in 3.0 mi East 15.0 mph - N/A   Overcast
3:54 AM 28.9 °F 18.2 °F 27.0 °F 92% 29.77 in 3.0 mi East 13.8 mph - N/A   Overcast
4:30 AM 28.4 °F 19.1 °F 28.4 °F 100% 29.74 in 2.5 mi East 10.4 mph - N/A   Overcast
4:54 AM 28.9 °F 19.2 °F 28.0 °F 96% 29.76 in 2.0 mi East 11.5 mph - N/A   Overcast
5:39 AM 30.2 °F 21.9 °F 28.4 °F 93% 29.72 in 1.5 mi East 9.2 mph - N/A   Overcast
5:54 AM 30.0 °F 20.5 °F 28.0 °F 92% 29.77 in 1.5 mi East 11.5 mph - N/A   Overcast
6:10 AM 30.2 °F 20.2 °F 28.4 °F 93% 29.72 in 2.0 mi East 12.7 mph - N/A   Overcast
6:18 AM 30.2 °F 20.8 °F 28.4 °F 93% 29.72 in 2.0 mi East 11.5 mph - 0.00 in Rain Light Freezing Rain
6:25 AM 30.2 °F 19.8 °F 28.4 °F 93% 29.71 in 1.8 mi East 13.8 mph - 0.00 in Rain Light Freezing Rain
6:34 AM 30.2 °F 19.8 °F 28.4 °F 93% 29.72 in 2.0 mi East 13.8 mph - 0.00 in Rain Light Freezing Rain
6:54 AM 30.0 °F 21.1 °F 28.9 °F 96% 29.76 in 2.5 mi East 10.4 mph 19.6 mph 0.00 in   Overcast
7:17 AM 30.2 °F 19.8 °F 28.4 °F 93% 29.69 in 3.0 mi East 13.8 mph - N/A   Overcast
7:51 AM 30.2 °F 19.8 °F 28.4 °F 93% 29.68 in 2.0 mi East 13.8 mph - N/A   Overcast
7:54 AM 30.9 °F 20.7 °F 28.9 °F 92% 29.73 in 1.8 mi East 13.8 mph - N/A   Overcast
8:05 AM 30.2 °F 19.8 °F 28.4 °F 93% 29.68 in 2.0 mi East 13.8 mph - N/A   Overcast
8:30 AM 30.2 °F 19.8 °F 28.4 °F 93% 29.67 in 4.0 mi East 13.8 mph - N/A   Overcast
8:54 AM 32.0 °F 22.1 °F 28.9 °F 88% 29.72 in 6.0 mi East 13.8 mph - N/A   Overcast
9:39 AM 32.0 °F 23.0 °F 30.2 °F 93% 29.67 in 2.0 mi East 11.5 mph - N/A   Overcast
9:47 AM 32.0 °F 22.1 °F 30.2 °F 93% 29.67 in 1.5 mi East 13.8 mph 20.7 mph N/A   Overcast
9:54 AM 32.0 °F 23.6 °F 30.0 °F 92% 29.72 in 1.2 mi East 10.4 mph - N/A   Overcast
10:11 AM 32.0 °F 21.6 °F 30.2 °F 93% 29.66 in 1.0 mi East 15.0 mph - N/A   Overcast
10:39 AM 32.0 °F 21.6 °F 30.2 °F 93% 29.66 in 0.8 mi East 15.0 mph - N/A   Overcast
10:54 AM 33.1 °F 23.9 °F 30.9 °F 92% 29.69 in 0.5 mi ESE 12.7 mph - 0.00 in Fog , Rain Light Freezing Rain
11:12 AM 33.8 °F 25.8 °F 32.0 °F 93% 29.62 in 0.8 mi ESE 10.4 mph 21.9 mph 0.00 in Rain Light Rain
11:26 AM 33.8 °F 24.3 °F 32.0 °F 93% 29.60 in 1.0 mi ESE 13.8 mph - 0.00 in Rain Light Rain
11:33 AM 33.8 °F 25.3 °F 32.0 °F 93% 29.59 in 1.2 mi East 11.5 mph 20.7 mph 0.00 in Rain Light Rain
11:54 AM 33.1 °F 23.9 °F 32.0 °F 96% 29.62 in 1.5 mi East 12.7 mph - 0.00 in Rain Light Rain
12:09 PM 33.8 °F 25.3 °F 32.0 °F 93% 29.56 in 1.0 mi ESE 11.5 mph 20.7 mph 0.00 in Rain Light Rain
12:18 PM 33.8 °F 24.8 °F 32.0 °F 93% 29.55 in 0.8 mi East 12.7 mph - 0.00 in Rain Light Rain
12:54 PM 34.0 °F 24.6 °F 32.0 °F 92% 29.56 in 0.2 mi ESE 13.8 mph - 0.00 in Fog , Rain Light Rain
1:54 PM 34.0 °F 25.5 °F 33.1 °F 96% 29.52 in 0.2 mi ESE 11.5 mph - 0.00 in Fog Fog
2:54 PM 34.0 °F 26.6 °F 33.1 °F 96% 29.50 in 0.2 mi East 9.2 mph - N/A Fog Fog
3:54 PM 35.1 °F 27.4 °F 33.1 °F 92% 29.47 in 0.5 mi East 10.4 mph - N/A Fog Fog
4:54 PM 35.1 °F 27.4 °F 34.0 °F 96% 29.44 in 0.8 mi East 10.4 mph - 0.00 in Rain Light Rain
5:05 PM 35.6 °F 29.2 °F 33.8 °F 93% 29.39 in 1.2 mi ESE 8.1 mph - 0.01 in Rain Light Rain
5:22 PM 35.6 °F 28.0 °F 33.8 °F 93% 29.38 in 2.0 mi ESE 10.4 mph - 0.01 in Rain Light Rain
5:40 PM 35.6 °F 29.9 °F 35.6 °F 100% 29.39 in 1.5 mi SE 6.9 mph - 0.02 in Rain Rain
5:52 PM 35.6 °F 30.7 °F 35.6 °F 100% 29.39 in 2.0 mi South 5.8 mph - 0.02 in Rain Light Rain
5:54 PM 35.1 °F 30.1 °F 35.1 °F 100% 29.43 in 2.0 mi South 5.8 mph - 0.02 in Rain Light Rain
6:01 PM 35.6 °F 30.7 °F 35.6 °F 100% 29.39 in 1.5 mi SSW 5.8 mph - 0.00 in Rain Light Rain
6:27 PM 35.6 °F 29.9 °F 33.8 °F 93% 29.40 in 2.5 mi West 6.9 mph - 0.01 in Rain Light Rain
6:54 PM 35.1 °F 30.1 °F 34.0 °F 96% 29.44 in 2.5 mi West 5.8 mph - 0.01 in   Overcast
7:27 PM 35.6 °F 31.7 °F 33.8 °F 93% 29.39 in 3.0 mi WSW 4.6 mph - N/A   Overcast
7:54 PM 35.1 °F 28.6 °F 33.1 °F 92% 29.42 in 4.0 mi WSW 8.1 mph - N/A   Overcast
8:54 PM 33.1 °F 22.2 °F 32.0 °F 96% 29.47 in 10.0 mi West 17.3 mph 26.5 mph N/A   Overcast
9:09 PM 33.8 °F 23.5 °F 30.2 °F 87% 29.43 in 10.0 mi West 16.1 mph 27.6 mph N/A   Overcast
9:30 PM 33.8 °F 22.8 °F 30.2 °F 87% 29.43 in 10.0 mi West 18.4 mph 27.6 mph N/A   Overcast
9:49 PM 32.0 °F 20.8 °F 30.2 °F 93% 29.44 in 8.0 mi West 17.3 mph 26.5 mph N/A   Overcast
9:54 PM 32.0 °F 21.6 °F 30.0 °F 92% 29.49 in 9.0 mi West 15.0 mph 25.3 mph N/A   Overcast
10:20 PM 32.0 °F 21.2 °F 28.4 °F 87% 29.46 in 8.0 mi West 16.1 mph 25.3 mph N/A   Overcast
10:54 PM 30.9 °F 18.7 °F 26.1 °F 82% 29.54 in 10.0 mi West 19.6 mph 28.8 mph N/A   Overcast
11:01 PM 30.2 °F 18.5 °F 26.6 °F 86% 29.50 in 10.0 mi West 17.3 mph 27.6 mph N/A   Overcast
11:24 PM 30.2 °F 18.9 °F 24.8 °F 80% 29.51 in 10.0 mi West 16.1 mph 26.5 mph N/A   Overcast
11:38 PM 30.2 °F 18.1 °F 24.8 °F 80% 29.51 in 10.0 mi WSW 18.4 mph 27.6 mph N/A   Overcast
11:54 PM 30.0 °F 19.5 °F 25.0 °F 82% 29.56 in 10.0 mi West 13.8 mph 24.2 mph N/A   Overcast